Timeline UpdatesTrip UpdatesNews PostsPvt PostsTravel TipsAdmin PostsConv PostsFollowed PostsChat RequestsBlog PostsPNR Posts

Disclaimer
Search
 
 
Fri Sep 19, 2014 07:18:27 ISTHomeTrainsΣChainsAtlasPNRForumGalleryNewsFAQTripsMembersLoginFeedback
No Recent News for this Train
Other Trains in the News **new
Latest...
running with SE1 (duration not known)....#1209740
Tue Sep 09, 2014 (09:17PM)
⇐ Return Journey: Train# 12321

12322/Mumbai CST - Howrah Mail (via Allahabad)

Time-Table HAS CHANGED.
Sep 09 (9:18PM)
Change Departure Station:
Change Arrival Station:
Post a Train Travel TipPost a Train Travel Tip **new
Post a Comment/Question/Picture/VideoPost a Comment/Question/Picture/Video
Pantry/Catering
✓ Pantry Car Avbl
✓ Catering Avbl
Loco/Rake Reversals
ALD/Allahabad Junction (10);
RSA - Rake Sharing
No RSA.
Rake/Coach Composition
LOCO-SLR-GEN-GEN-SE1-S1-S2-S3-S4-S5-S6-S7-S8-S9-S10-S11-PC-B1-B2-B3-A1-HA1-GEN-SLR.; Entry-801279
Loco
CSTM-IGP: KYN WCAM-3 IGP-ET: BSL/ET WAP-4 ET-ALD: ET WDP-4/4B ALD-HWH: HWH / MGS...
Read more...
WAP-4.
News    PNR    Forum    Time-Table    Availability    Fare Chart    Map    Arr/Dep History    Trips    Gallery    ΣChains    X/O    Timeline    
Travel Time: 28h 50m    35 halts    Distance: 1611 km    Avg Speed: 55 km/hr
Type: SuperFast
Zone: ER/Eastern
Departs @ 06:55
Platform# ???
SMTWTFS
Khandwa Junction/KNW 
Arrives @ 11:45 +1 night
Platform# 9
SMTWTFS
Kolkata Howrah Junction/HWH 

35 halts. 253 intermediate Stations between Khandwa Junction and Kolkata Howrah Junction

Show ALL intermediate Stations  Show Old Time-Table

#CodeStation NameX/OArrivesAvgDepartsAvgHaltPFDay#KmSpeedElevZoneAddress
1CSTMMumbai CST (18)  -21:25 21:30-81-565.95210mCRMumbai 400001, Maharashtra
2DRMumbai Dadar Central (8)  21:40-21:45-5m51-557.2597mCRMumbai 400014, Maharashtra
3KYNKalyan Junction (8)  22:25 22:30-22:30 22:35-5m41-512.85910mCRKalyan 421301, Maharashtra
4KSRAKasara (4)  23:38 23:43-23:40 23:45-2m11-445.329290mCRDist. Thane 421602, Maharashtra
5IGPIgatpuri (4)X00:15-00:20-5m22-431.073589mCRIgatpuri 422403, Maharashtra
6DVLDevlali (3)X  00:58 00:57-01:00-2 3m12-386.034561mCRDist. Nashik 422401, Maharashtra
7NKNasik Road (3)X  01:10-01:15-5m22-380.379563mCRNashik 422101, Maharashtra
8MMRManmad Junction (6)X  02:10-02:13-3m22-307.590580mCRManmad 423104, Maharashtra
9CSNChalisgaon Junction (3)X  02:58-03:00-2m--2-240.096352mCRChalisgaon 424101, Maharashtra
10JLJalgaon Junction (4)X  03:58-04:00-2m32-147.558213mCRJalgaon 425001, Maharashtra
11BSLBhusaval Junction (8)  04:25-04:35-10m32-123.376208mCRBhusaval 425201, Maharashtra
12BAUBurhanpur (2)X  05:18-05:20-2m22-68.987269mCRBurhanpur, Madhya Pradesh
13NPNRNepanagar (2)XO  05:38-05:40-2m--2-42.637289mCRState Highway 27, Madhya Pradesh
14KNWKhandwa Junction (5)»  07:00 06:50-07:05 06:55-5m--20.095310mCRKhandwa, Madhya Pradesh
15HDHarda (3)XO  08:03-08:05-2m22107.654289mWCRHarda, Madhya Pradesh
16ETItarsi Junction (7)X09:30-09:40-10m12183.479329mWCRItarsi 461111, Madhya Pradesh
17PPIPipariya (3)X  10:31-10:33-2m12250.793338mWCRPiparia, Madhya Pradesh
18GARGadarwara (2)X  11:05-11:07-2m12300.081352mWCRNarsinghpur, Madhya Pradesh
19KYKareli (2)X  11:27 11:28-11:29 11:30-2m12328.563361mWCRKareli, Madhya Pradesh
20NUNarsinghpur (2)  11:45-11:47-2m12344.475365mWCRNarsimhapur, Madhya Pradesh
21SRIDShridham (3)X  12:12-12:14-2m22375.557373mWCRShridham, Madhya Pradesh
22JBPJabalpur Junction (4)  13:10-13:20-10m42428.478416mWCRJabalpur, Madhya Pradesh
23KTEKatni Junction (6)  14:30-14:35-5m42519.384387mWCRKatni, Madhya Pradesh
24MYRMaihar (3)X  15:25 15:20-15:27 15:22-2m12582.244353mWCRMaihar Railway Station, Madhya Pradesh
25STASatna Junction (3)X  16:10-16:20-10m22617.644322mWCRSatna, Madhya Pradesh
26MKPManikpur Junction (4)X  18:07-18:12-5m22695.385250mNCRManikpur, Uttar Pradesh
27SRJShankargarh (3)O  18:51-18:53-2m22750.333132mNCRShankargarh, Uttar Pradesh
28NYNNaini Junction (4) new halt!!X  20:01-20:03-2m42787.71998mNCRAllahabad, Uttar Pradesh
29ALDAllahabad Junction (10)XOO↵¶20:25-20:45-20m62794.866100mNCRAllahabad 211003, Uttar Pradesh
30BDLVindhyachal (3)X  22:00-22:02-2m--2877.13488mNCRMirzapur, Uttar Pradesh
31MZPMirzapur (3)  22:18 22:15-22:20-2 5m--2884.47288mNCRMirzapur, Uttar Pradesh
32CARChunar Junction (5)X  22:46-22:48-2m32915.72685mNCRChunar Junction, Uttar Pradesh
33MGSMughal Sarai Junction (8)X  00:02-00:12-10m13947.68683mECRMughalsarai 232101, Uttar Pradesh
34BBUBhabua Road (4)  00:50-00:52-2m--31002.19580mECR06187-222222, Bihar
35SSMSasaram Junction (4)  01:22-01:24-2m331049.762111mECR06184-222051, Bihar
36DOSDehri On Sone (6)XO  01:41-01:43-2m431067.377114mECRRohtas(06184-253154), Bihar
37AUBRAnugraha Narayan Road (4)  01:56-01:58-2m331084.066104mECR06186-285271, Bihar
38GAYAGaya Junction (9)X  03:00-03:05-5m331152.464117mECR0631-2220283, Bihar
39KQRKoderma Junction (7)  04:18 04:17-04:20-2 3m--31228.883399mECR06534-222410 Koderma, Jharkhand
40HZDHazaribagh Road (4)X  04:55-04:57-2m--31277.158330mECRHazaribagh, Jharkhand
41PNMEParasnath (5)  05:28 05:25-05:30-2 5m231304.222282mECRGiridih 06532-233419, Jharkhand
42GMONetaji SC Bose Gomoh Junction (6)X  06:20-06:30-10m231322.251239mECRGomoh, Jharkhand
43DHNDhanbad Junction (8)  07:05-07:15-10m131352.063235mECR2319801. Div. HQ ECR, Jharkhand
44BRRBarakar (2)  07:54-07:56-2m231393.054129mERDist. Bardhaman, West Bengal
45ASNAsansol Junction (7)XO  08:15-08:30-15m631410.272113mERDist - Bardhaman, West Bengal
46RNGRaniGanj (4)X  08:45-08:47-2m431428.36692mERRaniganj, West Bengal
47DGRDurgapur (5)  09:09-09:13-4m431452.69471mERDurgapur, West Bengal
48PANPanagarh (4)X  09:23-09:25-2m331468.26170mERKaksa, West Bengal
49BWNBarddhaman Junction (8)  10:12-10:17-5m1231516.26434mERDist - Barddhaman, West Bengal
50HWHKolkata Howrah Junction (23)•  11:45--931610.5-10mERHowrah 711101, West Bengal
Scroll to Top
Scroll to Bottom